Zurück zum Katalog

COSMOS 711

AktivMilitärLEO
NORAD 7678·PAYLOAD·🇷🇺 Russia

Gestartet Feb 28, 1975 von Plesetsk Cosmodrome

Loading…

Nächste Überflüge (nächste 24 Stunden)

TLE

AktuellSource: Space-Track

Epoche: Sep 14, 2026, 13:46 UTC

1 07678U 75016A   26257.57396144 -.00000006  00000-0  66776-4 0  9991
2 07678  74.0032 301.2857 0019229 148.7244   5.6584 12.47086392346479

Verfolge COSMOS 711 in Echtzeit mit AllMySat

Download on the App Store